Copper Harbor, MI

11:53 AM EDT on May 25, 2018 (GMT -0400)
Copper Harbor

Weather History for KP59 - May, 2013

Change the Weather History Date:

Tuesday, May 28, 2013

  Actual Average Record
Temperature  
Mean Temperature 50 °F -  
Max Temperature 55 °F 56 °F 80 °F (2006)
Min Temperature 46 °F 40 °F 33 °F (2004)
Degree Days  
Heating Degree Days 14    
Moisture  
Dew Point 41 °F    
Average Humidity 69    
Maximum Humidity 92    
Minimum Humidity 40    
Precipitation  
Precipitation 0.00 in - - ()
Sea Level Pressure  
Sea Level Pressure 29.85 in    
Wind  
Wind Speed 4 mph (SSW)    
Max Wind Speed 8 mph    
Max Gust Speed 18 mph    
Averages and records for this station are not official NWS values.
T = Trace of Precipitation, MM = Missing Value Source: NWS Daily Summary

Daily Weather History Graph

Daily Weather History Graph

Search for Another Location

Airport or City:

Astronomy

May. 28, 2013 Rise Set
Actual Time 6:01 AM EDT 9:37 PM EDT
Civil Twilight 5:22 AM EDT 10:15 PM EDT
Nautical Twilight 4:31 AM EDT 11:07 PM EDT
Astronomical Twilight 3:21 AM EDT 12:18 AM EDT
Moon 12:09 AM EDT (5/28) 9:56 AM EDT (5/28)
Length of Visible Light 16h 53m
Length of Day
15h 35m
Waning Gibbous, 83% of the Moon is Illuminated
May 28
Waning Gibbous
May 31
Last Quarter
Jun 8
New
Jun 16
First Quarter
Jun 23
Full

Hourly Weather History & Observations

Time (EDT) Temp. Windchill Dew Point Humidity Pressure Visibility Wind Dir Wind Speed Gust Speed Precip Events Conditions
12:51 AM 51.1 °F - 34.0 °F 52% 29.98 in - WSW 4.6 mph - N/A   Unknown
1:51 AM 50.0 °F - 34.0 °F 54% 29.96 in - WSW 5.8 mph - N/A   Unknown
2:51 AM 51.1 °F - 35.1 °F 54% 29.94 in - SSW 4.6 mph - N/A   Unknown
3:51 AM 55.9 °F - 32.0 °F 40% 29.91 in - Variable 6.9 mph - N/A   Unknown
4:51 AM 46.0 °F 44.8 °F 37.0 °F 71% 29.91 in - Variable 3.5 mph - N/A   Unknown
5:51 AM 46.9 °F - 36.0 °F 66% 29.90 in - Calm Calm - N/A   Unknown
6:51 AM 48.0 °F - 36.0 °F 63% 29.89 in - Calm Calm - N/A   Unknown
7:51 AM 52.0 °F - 35.1 °F 53% 29.88 in - SW 8.1 mph - N/A   Unknown
8:51 AM 46.9 °F - 37.9 °F 71% 29.89 in - Calm Calm - N/A   Unknown
9:51 AM 52.0 °F - 39.0 °F 61% 29.88 in - Calm Calm - N/A   Unknown
10:51 AM 46.0 °F 44.8 °F 37.9 °F 73% 29.88 in - SE 3.5 mph - N/A   Unknown
11:51 AM 48.0 °F - 37.9 °F 68% 29.87 in - Calm Calm - N/A   Unknown
12:51 PM 54.0 °F - 37.9 °F 55% 29.85 in - SSE 5.8 mph - N/A   Unknown
1:51 PM 52.0 °F - 39.9 °F 63% 29.85 in - Variable 4.6 mph - N/A   Unknown
2:51 PM 55.0 °F - 42.1 °F 62% 29.82 in - SSE 6.9 mph - N/A   Unknown
3:51 PM 55.0 °F - 44.1 °F 67% 29.81 in - South 6.9 mph - N/A   Unknown
4:51 PM 52.0 °F - 46.0 °F 80% 29.81 in - South 8.1 mph 18.4 mph N/A   Unknown
5:51 PM 54.0 °F - 46.0 °F 75% 29.79 in - Variable 5.8 mph - N/A   Unknown
6:51 PM 54.0 °F - 46.0 °F 75% 29.78 in - South 3.5 mph - N/A   Unknown
7:51 PM 54.0 °F - 48.9 °F 83% 29.77 in - SSW 3.5 mph - N/A   Unknown
8:51 PM 52.0 °F - 48.9 °F 89% 29.78 in - Variable 4.6 mph - N/A   Unknown
9:51 PM 51.1 °F - 48.9 °F 92% 29.76 in - Variable 4.6 mph - N/A   Unknown
10:51 PM 51.1 °F - 48.9 °F 92% 29.75 in - SW 6.9 mph - N/A   Unknown
11:51 PM 51.1 °F - 48.9 °F 92% 29.75 in - SW 8.1 mph 16.1 mph N/A   Unknown